Regional Weather Roundup
Issued by NWS

Home | Current Version | Previous Version | Graphics & Text | Print | Product List | Glossary On
Versions: 1 2 3 4 5 6 7 8 9 10 11 12 13 14 15 16 17 18 19 20 21 22 23 24 25 26 27 28 29 30 31 32 33 34 35 36 37 38 39 40 41 42 43 44 45 46 47 48 49 50
000
ASUS43 KOAX 041910
RWRNE

WEATHER ROUNDUP FOR NEBRASKA
NATIONAL WEATHER SERVICE OMAHA NE
200 PM CDT FRI SEP 04 2015

NOTES: SATELLITE DATA IS BEING USED TO AUGMENT CLOUD COVER ABOVE
       12000 FEET.
       "FAIR" INDICATES FEW OR NO CLOUDS BELOW 12,000 FEET WITH NO
       SIGNIFICANT WEATHER AND/OR OBSTRUCTIONS TO VISIBILITY.

  * THESE STATIONS DO NOT REPORT WEATHER SUCH AS RAIN...SNOW OR FOG.

NEZ001>004-019>022-054>056-042000-
NEBRASKA PANHANDLE

CITY           SKY/WX    TMP DP  RH WIND       PRES   REMARKS
SCOTTSBLUFF    SUNNY     90  44  20 CALM      29.90F
ALLIANCE       MOSUNNY   89  47  23 SW5       29.89F
CHADRON        PTSUNNY   90  48  23 MISG      29.83F
KIMBALL        SUNNY     86  39  18 CALM      29.95F
SIDNEY         SUNNY     91  42  18 W6        29.93F
$$

NEZ057>060-069>072-079>082-042000-
SOUTHWEST NEBRASKA

CITY           SKY/WX    TMP DP  RH WIND       PRES   REMARKS
NORTH PLATTE   MOSUNNY   87  64  46 SE5       29.84S
IMPERIAL       MOSUNNY   89  53  29 W6        29.89F
LEXINGTON      MOSUNNY   87  62  43 SE14      29.84F
MCCOOK         MOSUNNY   91  60  35 CALM      29.85F HX  90
OGALLALA       SUNNY     87  55  33 SW5       29.87F
$$

NEZ005>010-023>029-035>040-094-042000-
NORTH CENTRAL NEBRASKA

CITY           SKY/WX    TMP DP  RH WIND       PRES   REMARKS
VALENTINE      SUNNY     93  52  24 CALM      29.80F HX  90
AINSWORTH      SUNNY     88  64  45 S9        29.83S
BROKEN BOW     SUNNY     88  63  43 S13G21    29.84F
O`NEILL        SUNNY     88  64  45 S17       29.82F
ORD            SUNNY     88  63  43 S16G24    29.82S
THEDFORD       SUNNY     90  61  37 CALM      29.85S
$$

NEZ041-046>049-061>064-073>077-083>087-042000-
SOUTH CENTRAL NEBRASKA

CITY           SKY/WX    TMP DP  RH WIND       PRES   REMARKS
GRAND ISLAND   SUNNY     92  65  40 S20G28    29.85F HX  94
AURORA         SUNNY     90  65  43 S23G29    29.85F HX  91
HASTINGS       SUNNY     92  64  39 S18G29    29.84F HX  93
HEBRON         SUNNY     91  61  37 S24G32    29.86F HX  90
HOLDREGE       SUNNY     90  58  33 S15G28    29.84F
KEARNEY *      SUNNY     91  64  40 S21       29.84F HX  93
YORK           SUNNY     91  66  43 S23G30    29.85F HX  94
$$

NEZ011>018-030>034-042>045-042000-
NORTHEAST NEBRASKA

CITY           SKY/WX    TMP DP  RH WIND       PRES   REMARKS
NORFOLK        SUNNY     89  69  51 S18G29    29.83F HX  93
ALBION         SUNNY     87  66  50 S17G26    29.84F
BLAIR          CLOUDY    83  69  62 SE13G18   29.90F
COLUMBUS *     MOSUNNY   90  68  48 S16G23    29.84S HX  93
FREMONT        MOSUNNY   87  69  55 S15G21    29.88F HX  91
TEKAMAH        CLOUDY    87  72  60 S12G21    29.87F HX  93
WAYNE          MOSUNNY   83  73  72 SE14      29.85F
$$

NEZ050>053-065>068-078-088>093-042000-
SOUTHEAST NEBRASKA

CITY           SKY/WX    TMP DP  RH WIND       PRES   REMARKS
LINCOLN        MOSUNNY   88  69  53 S21       29.87F HX  92
OMAHA EPPLEY   CLOUDY    86  71  60 S15       29.89F HX  91
BEATRICE       SUNNY     89  67  48 S16G24    29.89F HX  92
FALLS CITY     MOSUNNY   91  66  43 S13G26    29.92F HX  93
NEBRASKA CITY  PTSUNNY   90  58  34 S15       29.90F
PLATTSMOUTH    CLOUDY    83  69  61 SE7       29.90F
$$

NEZ044-045-051>053-067-042000-
OMAHA AREA

CITY           SKY/WX    TMP DP  RH WIND       PRES   REMARKS
OMAHA EPPLEY   CLOUDY    86  71  60 S15       29.89F HX  91
BLAIR          CLOUDY    83  69  62 SE13G18   29.90F
FREMONT        MOSUNNY   87  69  55 S15G21    29.88F HX  91
MILLARD        PTSUNNY   85  74  69 SE9       29.89F HX  92
OFFUTT AFB     CLOUDY    86  73  64 SE12      29.89F HX  92
PLATTSMOUTH    CLOUDY    83  69  61 SE7       29.90F
WAHOO          FAIR      87  72  60 S16       29.87F HX  93
$$




USA.gov is the U.S. government's official web portal to all federal, state and local government web resources and services.